User: anonymous   Login
Location: Grasslands National Park East Block
(49.0708°N, 106.5295°W)
Time: 13:37:47
(UTC-06:00)
Language:

Transit 2A Rocket - Orbit

View from above orbital plane
View from above orbital plane
View from above satellite
View from above satellite

Ground track
Ground track

The orbit data is extracted from the following two-line orbital elements,

1    47U 60007C   19291.96082765 -.00000035  00000-0  17255-4 0  9992
2    47  66.6651  83.3678 0221574 121.7535 240.5369 14.42053870100164
Epoch (UTC): 18 October 2019 23:03:35
Eccentricity: 0.0221574
inclination: 66.6651°
perigee height: 594 km
apogee height: 910 km
right ascension of ascending node: 83.3678°
argument of perigee: 121.7535°
revolutions per day: 14.42053870
mean anomaly at epoch: 240.5369°
orbit number at epoch: 10016

The dashed part of the orbit path shows where the satellite is in the earth's shadow,  

DLR